Change the Weather History Date:

Saturday, March 29, 2014

  Actual Average Record
Temperature  
Mean Temperature 65 °F -  
Max Temperature 75 °F 71 °F 86 °F (1997)
Min Temperature 53 °F 46 °F 35 °F (2013)
Growing Degree Days 15 (Base 50)    
Moisture  
Dew Point 58 °F    
Average Humidity 89    
Maximum Humidity 100    
Minimum Humidity 56    
Precipitation  
Precipitation 0.04 in - - ()
Sea Level Pressure  
Sea Level Pressure 29.91 in    
Wind  
Wind Speed 5 mph (South)    
Max Wind Speed 20 mph    
Max Gust Speed 28 mph    
Visibility 7 miles    
Events Fog , Rain    
Averages and records for this station are not official NWS values.
T = Trace of Precipitation, MM = Missing Value Source: NWS Daily Summary

Daily Weather History Graph

Daily Weather History Graph

Search for Another Location

Airport or City:

Trip Planner

Search our weather history database for the weather conditions in past years. The results will help you decide how hot, cold, wet, or windy it might be!

Date:

Astronomy

Mar. 29, 2014 Rise Set
Actual Time 7:26 AM EDT 7:52 PM EDT
Civil Twilight 7:01 AM EDT 8:17 PM EDT
Nautical Twilight 6:32 AM EDT 8:46 PM EDT
Astronomical Twilight 6:03 AM EDT 9:15 PM EDT
Moon 6:30 AM EDT (3/29) 6:58 PM EDT (3/29)
Length of Visible Light 13h 15m
Length of Day
12h 26m
Waning Crescent, 2% of the Moon is Illuminated
Mar 29
Waning Crescent
Mar 30
New
Apr 7
First Quarter
Apr 15
Full
Apr 22
Last Quarter

Hourly Weather History & Observations

Time (EDT) Temp. Dew Point Humidity Pressure Visibility Wind Dir Wind Speed Gust Speed Precip Events Conditions
12:08 AM 60.8 °F 59.0 °F 94% 30.00 in 10.0 mi NW 3.5 mph - N/A   Overcast
12:13 AM 60.8 °F 59.0 °F 94% 30.00 in 10.0 mi NNW 3.5 mph - N/A   Overcast
12:19 AM 60.8 °F 59.0 °F 94% 30.00 in 10.0 mi NNW 3.5 mph - N/A   Overcast
12:20 AM 60.8 °F 59.0 °F 94% 30.00 in 9.0 mi NNW 2.3 mph - N/A Rain Light Rain
12:25 AM 60.8 °F 59.0 °F 94% 30.00 in 7.0 mi NNW 2.3 mph - N/A Rain Light Rain
12:30 AM 60.8 °F 59.0 °F 94% 30.00 in 5.0 mi North 2.3 mph - N/A Rain Light Rain
12:40 AM 60.8 °F 59.0 °F 94% 30.00 in 5.0 mi NNE 4.6 mph - N/A   Light Drizzle
12:50 AM 60.8 °F 59.0 °F 94% 30.00 in 5.0 mi NNE 4.6 mph - N/A   Drizzle
12:55 AM 60.8 °F 59.0 °F 94% 30.00 in 4.0 mi NE 4.6 mph - N/A   Light Drizzle
12:58 AM 60.4 °F 59.9 °F 98% 30.01 in 4.0 mi NE 2.3 mph - 0.01 in   Light Drizzle
1:03 AM 60.8 °F 59.0 °F 94% 30.00 in 4.0 mi ENE 2.3 mph - N/A   Light Drizzle
1:08 AM 60.8 °F 59.0 °F 94% 30.00 in 5.0 mi North 1.2 mph - N/A   Light Drizzle
1:13 AM 60.8 °F 59.0 °F 94% 30.00 in 5.0 mi NE 2.3 mph - N/A   Light Drizzle
1:21 AM 60.8 °F 60.8 °F 100% 30.00 in 8.0 mi ENE 1.2 mph - N/A   Overcast
1:26 AM 60.8 °F 60.8 °F 100% 30.00 in 9.0 mi NE 4.6 mph - N/A   Overcast
1:36 AM 60.8 °F 60.8 °F 100% 29.99 in 7.0 mi ENE 2.3 mph - N/A   Overcast
1:41 AM 60.8 °F 60.8 °F 100% 29.99 in 8.0 mi East 1.2 mph - N/A   Overcast
1:46 AM 60.8 °F 60.8 °F 100% 29.98 in 9.0 mi East 2.3 mph - N/A   Overcast
1:56 AM 60.8 °F 60.8 °F 100% 29.98 in 10.0 mi ESE 3.5 mph - N/A   Overcast
1:58 AM 60.4 °F 60.1 °F 99% 29.99 in 10.0 mi East 4.6 mph - 0.01 in   Overcast
2:08 AM 60.8 °F 60.8 °F 100% 29.97 in 10.0 mi South 3.5 mph - N/A   Overcast
2:13 AM 60.8 °F 60.8 °F 100% 29.96 in 10.0 mi ESE 4.6 mph - N/A   Overcast
2:33 AM 60.8 °F 60.8 °F 100% 29.94 in 10.0 mi ESE 6.9 mph - N/A   Overcast
2:48 AM 60.8 °F 60.8 °F 100% 29.94 in 10.0 mi SE 5.8 mph - N/A   Overcast
2:58 AM 61.7 °F 61.3 °F 99% 29.94 in 10.0 mi ESE 9.2 mph - N/A   Overcast
3:03 AM 62.6 °F 60.8 °F 94% 29.93 in 10.0 mi SE 9.2 mph - N/A   Overcast
3:18 AM 62.6 °F 60.8 °F 94% 29.93 in 10.0 mi South 4.6 mph - N/A   Overcast
3:47 AM 62.6 °F 60.8 °F 94% 29.92 in 10.0 mi ESE 4.6 mph - N/A   Overcast
3:52 AM 62.6 °F 60.8 °F 94% 29.92 in 10.0 mi ESE 4.6 mph - N/A   Overcast
3:58 AM 61.9 °F 61.3 °F 98% 29.92 in 10.0 mi ESE 4.6 mph - N/A   Overcast
4:13 AM 60.8 °F 60.8 °F 100% 29.89 in 10.0 mi ESE 5.8 mph - N/A   Overcast
4:18 AM 60.8 °F 60.8 °F 100% 29.89 in 10.0 mi ESE 5.8 mph - N/A   Overcast
4:33 AM 60.8 °F 60.8 °F 100% 29.87 in 10.0 mi ESE 4.6 mph - N/A   Scattered Clouds
4:46 AM 60.8 °F 60.8 °F 100% 29.87 in 8.0 mi SSE 3.5 mph - N/A   Partly Cloudy
4:51 AM 60.8 °F 59.0 °F 94% 29.87 in 4.0 mi South 2.3 mph - N/A   Scattered Clouds
4:56 AM 59.0 °F 59.0 °F 100% 29.87 in 2.0 mi South 3.5 mph - N/A   Mostly Cloudy
4:58 AM 59.0 °F 59.0 °F 100% 29.88 in 1.8 mi South 3.5 mph - N/A   Mostly Cloudy
5:03 AM 60.8 °F 59.0 °F 94% 29.88 in 2.5 mi South 4.6 mph - N/A   Mostly Cloudy
5:08 AM 60.8 °F 59.0 °F 94% 29.88 in 2.5 mi South 3.5 mph - N/A   Mostly Cloudy
5:13 AM 59.0 °F 59.0 °F 100% 29.88 in 1.0 mi South 2.3 mph - N/A   Overcast
5:18 AM 59.0 °F 57.2 °F 94% 29.89 in 0.8 mi SSE 2.3 mph - N/A   Overcast
5:33 AM 59.0 °F 59.0 °F 100% 29.90 in 0.5 mi South 2.3 mph - N/A Fog Fog
5:38 AM 59.0 °F 59.0 °F 100% 29.90 in 0.8 mi South 2.3 mph - N/A   Mostly Cloudy
5:43 AM 59.0 °F 59.0 °F 100% 29.90 in 1.5 mi Calm Calm - N/A   Mostly Cloudy
5:48 AM 59.0 °F 59.0 °F 100% 29.91 in 2.5 mi WNW 1.2 mph - N/A   Mostly Cloudy
5:58 AM 57.7 °F 57.4 °F 99% 29.93 in 1.5 mi South 2.3 mph - N/A   Overcast
6:03 AM 59.0 °F 59.0 °F 100% 29.92 in 1.5 mi SW 3.5 mph - N/A   Overcast
6:08 AM 57.2 °F 57.2 °F 100% 29.92 in 2.0 mi SSW 2.3 mph - N/A   Overcast
6:13 AM 57.2 °F 57.2 °F 100% 29.92 in 3.0 mi South 2.3 mph - N/A   Overcast
6:18 AM 57.2 °F 57.2 °F 100% 29.92 in 1.5 mi SSE 2.3 mph - N/A   Mostly Cloudy
6:23 AM 57.2 °F 57.2 °F 100% 29.92 in 0.5 mi SSE 2.3 mph - N/A Fog Fog
6:28 AM 57.2 °F 57.2 °F 100% 29.92 in 0.2 mi SSE 3.5 mph - N/A Fog Fog
6:33 AM 57.2 °F 57.2 °F 100% 29.92 in 0.2 mi SSE 2.3 mph - N/A Fog Fog
6:43 AM 57.2 °F 57.2 °F 100% 29.91 in 0.2 mi SE 3.5 mph - N/A Fog Fog
6:48 AM 57.2 °F 57.2 °F 100% 29.91 in 0.2 mi SE 3.5 mph - N/A Fog Fog
6:58 AM 57.2 °F 57.2 °F 100% 29.93 in 0.5 mi SSE 4.6 mph - N/A Fog Fog
7:08 AM 55.4 °F 55.4 °F 100% 29.93 in 1.0 mi SSW 5.8 mph - N/A   Mist
7:13 AM 57.2 °F 57.2 °F 100% 29.96 in 1.2 mi SW 8.1 mph - N/A   Overcast
7:18 AM 59.0 °F 59.0 °F 100% 29.96 in 1.8 mi SSW 6.9 mph - N/A   Overcast
7:23 AM 59.0 °F 59.0 °F 100% 29.95 in 5.0 mi South 6.9 mph - N/A   Overcast
7:28 AM 60.8 °F 60.8 °F 100% 29.95 in 9.0 mi South 6.9 mph - N/A   Mostly Cloudy
7:33 AM 60.8 °F 60.8 °F 100% 29.95 in 10.0 mi SSW 5.8 mph - N/A   Mostly Cloudy
7:58 AM 60.6 °F 60.6 °F 100% 29.97 in 10.0 mi SW 10.4 mph - N/A   Mostly Cloudy
8:51 AM 60.8 °F 60.8 °F 100% 29.91 in 10.0 mi South 8.1 mph - N/A   Light Drizzle
8:58 AM 60.8 °F 60.8 °F 100% 29.91 in 10.0 mi South 8.1 mph - 0.00 in Rain Light Rain
9:13 AM 60.8 °F 60.8 °F 100% 29.89 in 10.0 mi SSE 10.4 mph - N/A Rain Light Rain
9:18 AM 60.8 °F 60.8 °F 100% 29.87 in 10.0 mi SSE 12.7 mph - N/A Rain Light Rain
9:22 AM 60.8 °F 60.8 °F 100% 29.85 in 10.0 mi SE 11.5 mph - N/A   Scattered Clouds
9:43 AM 60.8 °F 60.8 °F 100% 29.84 in 10.0 mi SSE 10.4 mph - N/A   Light Drizzle
9:53 AM 60.8 °F 60.8 °F 100% 29.84 in 10.0 mi South 10.4 mph - N/A   Partly Cloudy
9:58 AM 61.0 °F 61.0 °F 100% 29.85 in 10.0 mi South 9.2 mph - 0.01 in   Partly Cloudy
10:58 AM 65.8 °F 64.8 °F 96% 29.85 in 10.0 mi SSW 8.1 mph - N/A   Clear
11:58 AM 71.6 °F 58.5 °F 63% 29.83 in 10.0 mi SW 13.8 mph 26.5 mph 0.00 in   Clear
12:27 PM 73.4 °F 59.0 °F 61% 29.82 in 10.0 mi SSW 16.1 mph 27.6 mph N/A   Partly Cloudy
12:30 PM 73.4 °F 59.0 °F 61% 29.82 in 10.0 mi West 16.1 mph 27.6 mph N/A   Partly Cloudy
12:42 PM 75.2 °F 59.0 °F 57% 29.81 in 10.0 mi West 15.0 mph 21.9 mph N/A   Scattered Clouds
12:58 PM 75.4 °F 58.8 °F 56% 29.81 in 10.0 mi WSW 12.7 mph - N/A   Mostly Cloudy
1:58 PM 73.2 °F 57.4 °F 57% 29.81 in 10.0 mi WSW 12.7 mph 24.2 mph N/A   Scattered Clouds
2:46 PM 71.6 °F 57.2 °F 60% 29.81 in 10.0 mi WSW 16.1 mph 25.3 mph N/A   Mostly Cloudy
2:58 PM 71.6 °F 55.4 °F 57% 29.81 in 10.0 mi WSW 15.0 mph 21.9 mph N/A   Mostly Cloudy
3:58 PM 69.4 °F 55.9 °F 62% 29.82 in 10.0 mi WSW 12.7 mph 18.4 mph N/A   Overcast
4:45 PM 69.8 °F 57.2 °F 64% 29.80 in 10.0 mi West 13.8 mph 21.9 mph N/A   Mostly Cloudy
4:46 PM 69.8 °F 57.2 °F 64% 29.80 in 10.0 mi West 12.7 mph 21.9 mph N/A   Light Drizzle
4:54 PM 69.8 °F 55.4 °F 60% 29.80 in 10.0 mi West 17.3 mph 25.3 mph N/A   Light Drizzle
4:55 PM 69.8 °F 55.4 °F 60% 29.80 in 10.0 mi West 17.3 mph 25.3 mph N/A   Mostly Cloudy
4:58 PM 69.6 °F 56.1 °F 62% 29.82 in 10.0 mi West 15.0 mph 25.3 mph 0.00 in   Mostly Cloudy
5:42 PM 68.0 °F 57.2 °F 68% 29.80 in 10.0 mi WSW 10.4 mph 20.7 mph N/A   Light Drizzle
5:52 PM 68.0 °F 57.2 °F 68% 29.80 in 10.0 mi WSW 9.2 mph - N/A   Scattered Clouds
5:58 PM 68.5 °F 56.7 °F 66% 29.81 in 10.0 mi WSW 11.5 mph - 0.00 in   Scattered Clouds
6:52 PM 68.0 °F 57.2 °F 68% 29.81 in 10.0 mi NW 15.0 mph 20.7 mph N/A Rain Light Rain
6:58 PM 67.6 °F 57.6 °F 70% 29.84 in 10.0 mi WNW 13.8 mph 20.7 mph 0.00 in Rain Rain
7:07 PM 64.4 °F 59.0 °F 83% 29.83 in 10.0 mi WNW 11.5 mph 18.4 mph N/A   Mostly Cloudy
7:58 PM 62.6 °F 52.0 °F 68% 29.87 in 10.0 mi NW 16.1 mph 21.9 mph 0.01 in   Scattered Clouds
8:58 PM 59.5 °F 47.7 °F 65% 29.91 in 10.0 mi NW 19.6 mph 26.5 mph N/A   Partly Cloudy
9:58 PM 58.1 °F 44.8 °F 61% 29.95 in 10.0 mi NW 18.4 mph 27.6 mph N/A   Scattered Clouds
10:58 PM 55.4 °F 42.3 °F 61% 29.98 in 10.0 mi NW 10.4 mph - N/A   Mostly Cloudy
11:58 PM 53.4 °F 42.1 °F 65% 29.99 in 10.0 mi WNW 15.0 mph 26.5 mph N/A   Mostly Cloudy